Regional Weather Roundup
Issued by NWS

Home | Current Version | Previous Version | Text Only | Print | Product List | Glossary On
Versions: 1 2 3 4 5 6 7 8 9 10 11 12 13 14 15 16 17 18 19 20 21 22 23 24 25 26 27 28 29 30 31 32 33 34 35 36 37 38 39 40 41 42 43 44 45 46 47 48 49 50
637
ASUS44 KBMX 270610
RWRAL

ALABAMA REGIONAL WEATHER ROUNDUP
NATIONAL WEATHER SERVICE BIRMINGHAM AL
100 AM CDT WED JUL 27 2016

NOTE: "FAIR" INDICATES FEW OR NO CLOUDS BELOW 12,000 FEET
WITH NO SIGNIFICANT WEATHER AND/OR OBSTRUCTIONS TO VISIBILITY.

THE REMARK "TC" DENOTES TEMPERATURE IN DEGREES CELSIUS.

ALZ001>011-014-016>018-020-270700-
NORTH ALABAMA

CITY           SKY/WX    TMP DP  RH WIND       PRES   REMARKS
MUSCLE SHOALS  CLEAR     78  71  79 CALM      30.00F
6HR MIN TEMP:  78; 6HR MAX TEMP:  90;

HUNTSVILLE     CLEAR     80  70  71 S5        30.01S
6HR MIN TEMP:  80; 6HR MAX TEMP:  95;

DECATUR        CLEAR     81  72  74 S13G20    30.00F
6HR MIN TEMP:  80; 6HR MAX TEMP:  90;

HALEYVILLE     FAIR      77  72  84 S5        30.03F
6HR MIN TEMP:  77; 6HR MAX TEMP:  90;

GADSDEN        CLEAR     79  74  84 S3          N/A
6HR MIN TEMP:  79; 6HR MAX TEMP:  91;

$$

ALZ012-013-022-023-030>036-040>044-270700-
WEST CENTRAL ALABAMA

CITY           SKY/WX    TMP DP  RH WIND       PRES   REMARKS
TUSCALOOSA     CLEAR     77  75  93 S7        29.99F
6HR MIN TEMP:  77; 6HR MAX TEMP:  85;

$$

ALZ015-024>027-033>036-040>044-270700-
CENTRAL ALABAMA

CITY           SKY/WX    TMP DP  RH WIND       PRES   REMARKS
BIRMINGHAM     CLEAR     79  73  82 S7        30.05F
6HR MIN TEMP:  79; 6HR MAX TEMP:  89;

MONTGOMERY     CLEAR     77  73  87 S3        30.03F
6HR MIN TEMP:  77; 6HR MAX TEMP:  86; 6HR PCP:  0.49;

SHELBY CO ARPT CLEAR     77  73  87 SE5       30.03F
6HR MIN TEMP:  77; 6HR MAX TEMP:  86;

MAXWELL AFB    CLEAR     77  74  92 S3        30.02F
6HR MIN TEMP:  76; 6HR MAX TEMP:  86;

GREENVILLE     FAIR      76  72  87 S5        30.04S
6HR MIN TEMP:  76; 6HR MAX TEMP:  81; 6HR PCP: TRACE;

$$

ALZ019-021-028-029-037-038-045>048-270700-
EAST CENTRAL ALABAMA

CITY           SKY/WX    TMP DP  RH WIND       PRES   REMARKS
ANNISTON       CLEAR     78  72  81 SW3       30.05S
6HR MIN TEMP:  78; 6HR MAX TEMP:  91;

ALEXANDER CITY CLEAR     78  78 100 CALM      30.06S
6HR MIN TEMP:  78; 6HR MAX TEMP:  88;

AUBURN         MOCLDY    75  74  96 S7        30.08F
6HR MIN TEMP:  75; 6HR MAX TEMP:  80;

$$

ALZ051>064-270700-
SOUTHWEST ALABAMA

CITY           SKY/WX    TMP DP  RH WIND       PRES   REMARKS
MOBILE         PTCLDY    75  74  96 S5        30.03F
6HR MIN TEMP:  75; 6HR MAX TEMP:  78; 6HR PCP:  0.04;

BROOKLEY FIELD CLOUDY    77  75  93 CALM      30.03F
6HR MIN TEMP:  77; 6HR MAX TEMP:  79; 6HR PCP:  0.07;

EVERGREEN      MOCLDY    75  73  93 S6        30.04S
6HR MIN TEMP:  75; 6HR MAX TEMP:  78;

$$

ALZ049-050-065>069-270700-
SOUTHEAST ALABAMA

CITY           SKY/WX    TMP DP  RH WIND       PRES   REMARKS
DOTHAN         PTCLDY    75  73  93 SW6       30.11S
6HR MIN TEMP:  75; 6HR MAX TEMP:  80; 6HR PCP: TRACE;

OZARK          PTCLDY    74  74 100 S5        30.06F
6HR MIN TEMP:  74; 6HR MAX TEMP:  80; 6HR PCP:  0.06;

TROY           CLEAR     74  73  97 S5        30.06F
6HR MIN TEMP:  74; 6HR MAX TEMP:  79;

EUFAULA        FAIR      77  74  90 S3        30.05F
6HR MIN TEMP:  77; 6HR MAX TEMP:  81;

$$




USA.gov is the U.S. government's official web portal to all federal, state and local government web resources and services.